Location: �bnet
(46.9957°N, 8.4908°E)
Time: 09:19:45
(UTC+00:00)

Cosmos 2084 - Pass Details

Date: 11 May 2021
Orbit: 542 x 639 km, 62.8° (Epoch: 14 June)

Event Time Altitude Azimuth Distance (km) Brightness Sun altitude
Rises 20:00:29 0° 209° (SSW) 2,704 6.7 -10.7°
Reaches altitude 10° 20:02:40 10° 206° (SSW) 1,823 5.8 -11.0°
Maximum altitude 20:06:42 61° 126° (SE) 638 3.3 -11.5°
Drops below altitude 10° 20:10:53 10° 46° (NE) 1,884 6.0 -12.0°
Sets 20:13:11 0° 43° (NE) 2,803 6.9 -12.3°
